Content
SEND FEEDBACK

Daily
Averages
Monthly
Summary
Canada

WATERLOO WELLING, ONTARIO


Home > North America > Canada > Ontario
Elevation: 1031 feet     Latitude: 43 27N     Longitude: 080 23W

WEATHER
 
SELECT A DAY
Number of Records: 266,079;   Date Range: 1/1/95 - 11/19/14
 
SHARE

PRINT THIS DATA

[ ← Previous Day ]
WEATHER ALMANAC - JULY 22, 2014
[ Next Day → ]
[ °C ]   °F
Weather ElementAverageHighLow
Temperature67.1 °F84.2 °F (2:00 pm)55.4 °F (12:00 am)
Dewpoint59.8 °F66.2 °F (11:00 am)55.4 °F (8:00 am)
Humidity80.5 %100 % (2:00 am)31 % (2:00 pm)
Barometer30.09 in30.14 in (6:00 pm)29.93 in (4:00 pm)
Wind Speed4 mph17.3 mph (8:42 pm)
Wind Gust21.9 mph (12:44 am)
Weather ElementAverage
Visibility5.4 mi
Wind DirectionESE (106.8 °)

Weather ElementTotal
Precipitation---
Cooling Degree Days4.8 (Base 65)
Growing Degree Days19.8 (Base 50)
Averaged from 50 records on July 22, 2014
WEATHER CONDITIONS BREAKOUT
WIND DIRECTION BREAKOUT
WEATHER BY HOUR - JULY 22, 2014
[ °C ]   °F
Local TimeTemperatureDewpointHumidityBarometerVisibilityWind DirectionWind SpeedGust SpeedPrecipitationEventsConditions
12:00 AM62.6 °F60.8 °F94 %30.14 in7.0 miCalmClear
12:35 AM60.8 °F59.0 °F94 %30.13 in5.0 miCalmClear
12:52 AM60.8 °F59.0 °F94 %30.13 in6.0 miNNW (340°)3.5 mphClear
1:00 AM60.8 °F59.0 °F94 %30.13 in5.0 miNorth (350°)3.5 mphClear
1:14 AM62.6 °F60.8 °F94 %30.13 in6.0 miVariable3.5 mphClear
1:39 AM60.8 °F59.0 °F94 %30.12 in5.0 miCalmClear
2:00 AM60.8 °F59.0 °F94 %30.12 in5.0 miCalmClear
2:00 AM60.0 °F59.0 °F94 %30.12 in5.0 miSSW (210°)1.2 mphMist
2:18 AM60.8 °F59.0 °F94 %30.13 in6.0 miCalmClear
2:26 AM59.0 °F57.2 °F94 %30.12 in5.0 miNNW (330°)3.5 mphClear
3:00 AM59.0 °F57.2 °F94 %30.12 in4.0 miCalmClear
3:28 AM59.0 °F59.0 °F100 %30.12 in2.5 miCalmClear
3:54 AM57.2 °F55.4 °F94 %30.12 in1.8 miVariable2.3 mphClear
3:59 AM59.0 °F57.2 °F94 %30.12 in2.0 miESE (120°)3.5 mphClear
4:00 AM57.2 °F57.2 °F100 %30.12 in2.0 miESE (120°)3.5 mphClear
4:09 AM57.2 °F57.2 °F100 %30.12 in1.8 miCalmClear
4:35 AM57.2 °F55.4 °F94 %30.12 in0.6 miCalmClear
4:52 AM59.0 °F57.2 °F94 %30.13 in0.8 miCalmClear
5:00 AM57.2 °F57.2 °F100 %30.13 in1.0 miCalmClear
5:01 AM57.2 °F57.2 °F100 %30.13 in0.6 miCalmClear
5:30 AM57.2 °F55.4 °F94 %30.13 in0.8 miSE (130°)3.5 mphPartly Cloudy
6:00 AM55.4 °F55.4 °F100 %30.13 in1.0 miVariable2.3 mphClear
6:54 AM57.2 °F57.2 °F100 %30.13 in2.0 miVariable2.3 mphClear
6:57 AM57.2 °F57.2 °F100 %30.13 in3.0 miCalmClear
7:00 AM59.0 °F57.2 °F94 %30.13 in3.0 miCalmClear
7:08 AM60.8 °F59.0 °F94 %30.13 in2.2 miEast (100°)3.5 mphClear
7:18 AM60.8 °F60.8 °F100 %30.13 in3.0 miEast (80°)2.3 mphClear
7:33 AM62.6 °F60.8 °F94 %30.13 in2.5 miNorth (360°)2.3 mphClear
7:53 AM64.4 °F62.6 °F94 %30.14 in3.0 miCalmClear
8:00 AM66.0 °F63.0 °F87 %30.13 in3.0 miNNE (30°)1.2 mphMist
8:00 AM66.2 °F62.6 °F88 %30.13 in3.0 miCalmClear
8:21 AM68.0 °F62.6 °F83 %30.14 in6.0 miCalmHaze
9:00 AM71.6 °F64.4 °F78 %30.14 in9.0 miVariable2.3 mphClear
10:00 AM77.0 °F62.6 °F61 %30.12 in9.0 miVariable2.3 mphClear
11:00 AM78.8 °F60.8 °F54 %30.10 in9.0 miSouth (170°)6.9 mphClear
12:00 PM80.6 °F57.2 °F45 %30.09 in9.0 miSouth (170°)6.9 mphClear
1:00 PM82.4 °F57.2 °F42 %30.06 in9.0 miSSW (200°)10.4 mphClear
2:00 PM82.4 °F57.2 °F42 %30.04 in9.0 miSSW (210°)5.8 mphClear
2:00 PM83.0 °F58.0 °F31 %30.04 in10.0 miSW (220°)8.1 mph
3:00 PM84.2 °F59.0 °F42 %30.02 in9.0 miSouth (180°)10.4 mphClear
4:00 PM84.2 °F62.6 °F48 %30.01 in9.0 miSouth (190°)12.7 mph19.6 mphClear
5:00 PM84.2 °F64.4 °F51 %29.99 in9.0 miSSW (200°)17.3 mphClear
6:00 PM84.2 °F62.6 °F48 %29.99 in9.0 miSW (220°)15.0 mph21.9 mphClear
7:00 PM82.4 °F62.6 °F51 %29.96 in9.0 miSSW (200°)13.8 mph19.6 mphClear
8:00 PM78.8 °F62.6 °F57 %29.95 in9.0 miSSW (200°)8.1 mphClear
8:00 PM79.0 °F62.0 °F47 %29.95 in10.0 miSSW (200°)8.1 mph
9:00 PM75.2 °F64.4 °F69 %29.93 in9.0 miSW (220°)8.1 mphClear
10:00 PM75.2 °F66.2 °F73 %29.93 in9.0 miSouth (190°)8.1 mphMostly Cloudy
11:00 PM75.2 °F66.2 °F73 %29.94 in9.0 miSouth (190°)6.9 mphOvercast
11:59 PM75.2 °F66.2 °F73 %29.93 in9.0 miSSW (210°)8.1 mphThunderstormOvercast
Hourly data recorded from CYKF, located miles away from Waterloo Welling, Ontario







STORIES FROM OUR PARTNERS